SBONWEB Weather Reports


Display with metric or nautical units.
time (UTC)temp
F
wind
direction
speed
MPH
gust
MPH
rain 1hr
in
rain 24hr
in
rain mn
in
humidity
%
barometer
mb
20260902184503 74 0 0.0 0.0 0.00 0.00 0.00 75 1018.3
20260902183604 74 0 0.0 0.0 0.00 0.00 0.00 75 1018.4
20260902182703 75 0 0.0 0.0 0.00 0.00 0.00 73 1018.3
20260902181803 76 0 1.0 0.0 0.00 0.00 0.00 72 1018.0
20260902180903 76 200 1.0 2.0 0.00 0.00 0.00 70 1018.0
20260902180005 77 200 1.0 3.0 0.00 0.00 0.00 69 1018.0
20260902175403 78 196 1.0 2.0 0.00 0.00 0.00 68 1018.0
20260902174718 79 188 1.0 2.0 0.00 0.00 0.00 68 1017.9
20260902173603 80 188 0.0 2.0 0.00 0.00 0.00 66 1017.8
20260902172703 81 179 0.0 1.0 0.00 0.00 0.00 66 1017.9
20260902171804 82 167 0.0 3.0 0.00 0.00 0.00 64 1017.9
20260902170903 83 166 0.0 1.0 0.00 0.00 0.00 60 1017.9
20260902170003 83 158 1.0 4.0 0.00 0.00 0.00 57 1017.9
20260902165403 83 168 1.0 4.0 0.00 0.00 0.00 56 1017.9
20260902164717 84 188 1.0 2.0 0.00 0.00 0.00 53 1017.9
20260902163819 84 206 1.0 3.0 0.00 0.00 0.00 57 1017.9
20260902162703 83 203 2.0 5.0 0.00 0.00 0.00 54 1017.8
20260902161803 83 195 2.0 6.0 0.00 0.00 0.00 54 1017.8
20260902160903 84 180 1.0 4.0 0.00 0.00 0.00 54 1017.9
20260902160006 84 149 2.0 5.0 0.00 0.00 0.00 55 1017.9
20260902155403 84 182 2.0 5.0 0.00 0.00 0.00 54 1017.9
20260902154503 84 178 2.0 5.0 0.00 0.00 0.00 53 1018.0
20260902153604 84 189 2.0 5.0 0.00 0.00 0.00 55 1018.2
20260902152703 83 203 1.0 5.0 0.00 0.00 0.00 57 1018.2
20260902151803 84 156 1.0 3.0 0.00 0.00 0.00 54 1018.2
20260902150904 84 170 2.0 3.0 0.00 0.00 0.00 54 1018.2
20260902150003 84 188 2.0 8.0 0.00 0.00 0.00 52 1018.3
20260902145403 85 158 1.0 5.0 0.00 0.00 0.00 52 1018.4
20260902144503 84 162 1.0 4.0 0.00 0.00 0.00 52 1018.4
20260902143604 84 164 2.0 5.0 0.00 0.00 0.00 53 1018.4
20260902142705 85 152 2.0 7.0 0.00 0.00 0.00 51 1018.4
20260902141803 84 177 3.0 7.0 0.00 0.00 0.00 50 1018.4
20260902141118 84 169 2.0 7.0 0.00 0.00 0.00 53 1018.5
20260902140217 84 132 3.0 8.0 0.00 0.00 0.00 52 1018.6
20260902135404 84 171 2.0 8.0 0.00 0.00 0.00 54 1018.6
20260902134503 84 161 3.0 5.0 0.00 0.00 0.00 54 1018.6
20260902133604 83 131 4.0 9.0 0.00 0.00 0.00 55 1018.8
20260902132703 83 108 4.0 9.0 0.00 0.00 0.00 54 1018.7
20260902131803 84 143 4.0 7.0 0.00 0.00 0.00 56 1018.8
20260902130903 83 106 4.0 9.0 0.00 0.00 0.00 55 1019.0
20260902130003 83 120 2.0 8.0 0.00 0.00 0.00 55 1019.3
20260902125403 84 121 2.0 5.0 0.00 0.00 0.00 53 1019.3
20260902124503 84 170 2.0 6.0 0.00 0.00 0.00 57 1019.4
20260902123604 83 203 3.0 5.0 0.00 0.00 0.00 58 1019.4
20260902122703 83 154 2.0 8.0 0.00 0.00 0.00 59 1019.5
20260902121803 83 136 3.0 9.0 0.00 0.00 0.00 59 1019.6
20260902120903 82 188 3.0 7.0 0.00 0.00 0.00 60 1019.8
20260902120219 82 187 2.0 6.0 0.00 0.00 0.00 61 1019.8
20260902115618 83 142 2.0 5.0 0.00 0.00 0.00 61 1019.9
20260902114504 82 173 3.0 7.0 0.00 0.00 0.00 62 1020.0
20260902113817 81 130 4.0 8.0 0.00 0.00 0.00 64 1020.1
20260902112703 80 80 4.0 7.0 0.00 0.00 0.00 62 1020.1
20260902111803 81 110 3.0 8.0 0.00 0.00 0.00 62 1020.3
20260902110903 82 129 1.0 7.0 0.00 0.00 0.00 61 1020.3
20260902110007 80 102 3.0 3.0 0.00 0.00 0.00 64 1020.4
20260902105403 80 109 4.0 7.0 0.00 0.00 0.00 65 1020.5
20260902104503 80 120 3.0 9.0 0.00 0.00 0.00 65 1020.7
20260902103603 80 137 2.0 5.0 0.00 0.00 0.00 64 1020.5
20260902102703 80 78 4.0 7.0 0.00 0.00 0.00 62 1020.6
20260902102017 79 98 4.0 8.0 0.00 0.00 0.00 62 1020.7
20260902100903 80 147 2.0 6.0 0.00 0.00 0.00 65 1020.8
20260902100218 80 119 2.0 4.0 0.00 0.00 0.00 63 1020.8
20260902095617 80 90 2.0 7.0 0.00 0.00 0.00 63 1020.8
20260902094504 79 98 2.0 4.0 0.00 0.00 0.00 66 1020.9
20260902093818 79 115 2.0 8.0 0.00 0.00 0.00 68 1021.0
20260902092703 78 67 2.0 5.0 0.00 0.00 0.00 67 1021.0
20260902091803 78 72 2.0 6.0 0.00 0.00 0.00 68 1020.9
20260902090903 78 96 3.0 5.0 0.00 0.00 0.00 69 1021.1
20260902090004 77 103 3.0 7.0 0.00 0.00 0.00 70 1021.1
20260902085403 77 109 3.0 8.0 0.00 0.00 0.00 70 1021.0
20260902084503 77 78 2.0 7.0 0.00 0.00 0.00 68 1020.9
20260902083604 77 78 2.0 6.0 0.00 0.00 0.00 69 1020.8
20260902082703 76 85 2.0 5.0 0.00 0.00 0.00 71 1020.8
20260902082016 76 358 3.0 5.0 0.00 0.00 0.00 71 1020.8
20260902080903 76 25 3.0 5.0 0.00 0.00 0.00 70 1020.8
20260902080003 76 2 3.0 7.0 0.00 0.00 0.00 73 1020.7
20260902075403 76 4 4.0 7.0 0.00 0.00 0.00 72 1020.7
20260902074718 75 15 3.0 7.0 0.00 0.00 0.00 72 1020.4
20260902073603 75 18 2.0 6.0 0.00 0.00 0.00 73 1020.5
20260902072703 75 14 3.0 4.0 0.00 0.00 0.00 74 1020.6
20260902071803 74 17 3.0 4.0 0.00 0.00 0.00 74 1020.7
20260902070903 74 16 3.0 6.0 0.00 0.00 0.00 75 1020.5
20260902070006 74 4 3.0 5.0 0.00 0.00 0.00 75 1020.5
20260902065403 74 14 4.0 5.0 0.00 0.00 0.00 76 1020.3
20260902064717 73 358 4.0 7.0 0.00 0.00 0.00 77 1020.3
20260902063603 73 10 5.0 9.0 0.00 0.00 0.00 77 1020.3
20260902062703 72 353 5.0 9.0 0.00 0.00 0.00 77 1020.3
20260902061804 72 1 5.0 9.0 0.00 0.00 0.00 79 1020.2
20260902061117 72 7 4.0 9.0 0.00 0.00 0.00 79 1020.2
20260902060003 71 4 3.0 7.0 0.00 0.00 0.00 81 1020.2
20260902055404 70 9 3.0 7.0 0.00 0.00 0.00 82 1020.2
20260902054503 70 8 3.0 7.0 0.00 0.00 0.00 82 1020.0
20260902053603 70 8 2.0 7.0 0.00 0.00 0.00 83 1020.1
20260902052703 69 354 1.0 5.0 0.00 0.00 0.00 84 1020.0
20260902051804 69 4 2.0 3.0 0.00 0.00 0.00 83 1019.8
20260902051116 69 6 2.0 5.0 0.00 0.00 0.00 83 1019.8
20260902050005 69 297 3.0 4.0 0.00 0.00 0.00 83 1019.8
20260902045403 69 316 3.0 6.0 0.00 0.00 0.00 83 1019.7
20260902044503 69 329 3.0 6.0 0.00 0.00 0.00 83 1019.7
20260902043818 69 358 4.0 7.0 0.00 0.00 0.00 83 1019.8
20260902042703 69 314 4.0 8.0 0.00 0.00 0.00 83 1019.8
20260902041803 69 303 3.0 7.0 0.00 0.00 0.00 84 1019.7
20260902040903 69 334 1.0 5.0 0.00 0.00 0.00 85 1019.6
20260902040004 69 337 1.0 3.0 0.00 0.00 0.00 84 1019.7
20260902035403 69 344 2.0 3.0 0.00 0.00 0.00 84 1019.6
20260902034503 69 352 2.0 4.0 0.00 0.00 0.00 84 1019.6
20260902033604 69 9 1.0 4.0 0.00 0.00 0.00 84 1019.7
20260902032703 69 357 2.0 4.0 0.00 0.00 0.00 83 1019.7
20260902031803 70 3 2.0 4.0 0.00 0.00 0.00 82 1019.8
20260902030904 70 346 2.0 4.0 0.00 0.00 0.00 82 1019.8
20260902030003 70 321 3.0 4.0 0.00 0.00 0.00 81 1019.7
20260902025403 70 10 3.0 6.0 0.00 0.00 0.00 81 1019.7
20260902024503 70 345 4.0 7.0 0.00 0.00 0.00 81 1019.8
20260902023603 70 336 4.0 6.0 0.00 0.00 0.00 81 1019.7
20260902022703 70 337 3.0 7.0 0.00 0.00 0.00 81 1019.8
20260902021803 70 330 3.0 6.0 0.00 0.00 0.00 81 1019.7
20260902020904 70 338 2.0 7.0 0.00 0.00 0.00 81 1019.7
20260902015403 70 348 2.0 4.0 0.00 0.00 0.00 81 1019.7
20260902014503 70 1 1.0 2.0 0.00 0.00 0.00 81 1019.6
20260902013603 70 277 1.0 3.0 0.00 0.00 0.00 81 1019.6
20260902012703 71 311 3.0 4.0 0.00 0.00 0.00 81 1019.6
20260902012018 71 356 3.0 4.0 0.00 0.00 0.00 81 1019.6
20260902010904 70 9 1.0 6.0 0.00 0.00 0.00 82 1019.7
20260902010003 70 0 0.0 0.0 0.00 0.00 0.00 82 1019.6
20260902005404 70 0 0.0 0.0 0.00 0.00 0.00 82 1019.8
20260902004503 70 0 0.0 0.0 0.00 0.00 0.00 82 1019.7
20260902003603 70 0 0.0 0.0 0.00 0.00 0.00 82 1019.7
20260902002703 70 0 0.0 0.0 0.00 0.00 0.00 82 1019.7
20260902002017 70 0 0.0 0.0 0.00 0.00 0.00 82 1019.8
20260902000904 70 0 0.0 0.0 0.00 0.00 0.00 82 1019.7
20260902000003 71 0 0.0 0.0 0.00 0.00 0.00 82 1019.8
20260901235403 71 0 0.0 0.0 0.00 0.00 0.00 81 1019.8
20260901234503 71 0 0.0 0.0 0.00 0.00 0.00 81 1019.7
20260901233603 71 0 0.0 0.0 0.00 0.00 0.00 81 1019.7
20260901232918 71 0 0.0 0.0 0.00 0.00 0.00 80 1019.6
20260901231803 72 354 1.0 4.0 0.00 0.00 0.00 79 1019.7
20260901231118 72 352 1.0 4.0 0.00 0.00 0.00 79 1019.6
20260901230003 72 319 2.0 3.0 0.00 0.00 0.00 79 1019.7
20260901225404 72 294 2.0 3.0 0.00 0.00 0.00 78 1019.7
20260901224503 73 9 3.0 5.0 0.00 0.00 0.00 78 1019.7
20260901223603 73 18 3.0 8.0 0.00 0.00 0.00 76 1019.8
20260901222703 73 25 3.0 7.0 0.00 0.00 0.00 76 1019.8
20260901221803 73 9 3.0 6.0 0.00 0.00 0.00 76 1019.6
20260901220904 73 334 3.0 6.0 0.00 0.00 0.00 76 1019.5
20260901220004 74 6 3.0 6.0 0.00 0.00 0.00 76 1019.5
20260901215403 74 6 3.0 6.0 0.00 0.00 0.00 76 1019.4
20260901214718 74 5 3.0 4.0 0.00 0.00 0.00 76 1019.5
20260901213603 73 347 2.0 6.0 0.00 0.00 0.00 77 1019.5
20260901212917 72 331 1.0 4.0 0.00 0.00 0.00 78 1019.6
20260901211803 72 267 0.0 2.0 0.00 0.00 0.00 78 1019.6
20260901210904 72 0 0.0 0.0 0.00 0.00 0.00 78 1019.5
20260901210003 72 0 0.0 0.0 0.00 0.00 0.00 79 1019.5
20260901205403 72 0 0.0 0.0 0.00 0.00 0.00 79 1019.6
20260901204503 72 0 0.0 0.0 0.00 0.00 0.00 79 1019.5
20260901203603 72 0 0.0 0.0 0.00 0.00 0.00 79 1019.5
20260901202704 72 0 0.0 0.0 0.00 0.00 0.00 79 1019.6
20260901202018 72 0 0.0 0.0 0.00 0.00 0.00 79 1019.5
20260901200903 72 0 0.0 0.0 0.00 0.00 0.00 79 1019.5
20260901200003 72 0 0.0 0.0 0.00 0.00 0.00 79 1019.5
20260901195403 72 0 0.0 0.0 0.00 0.00 0.00 78 1019.4
20260901194504 73 0 0.0 0.0 0.00 0.00 0.00 78 1019.4
20260901193603 73 0 0.0 0.0 0.00 0.00 0.00 77 1019.3
20260901192703 73 0 0.0 0.0 0.00 0.00 0.00 77 1019.2
20260901191804 74 0 0.0 0.0 0.00 0.00 0.00 76 1019.1
20260901190903 74 0 0.0 0.0 0.00 0.00 0.00 75 1019.0
20260901190005 74 0 0.0 0.0 0.00 0.00 0.00 75 1018.9
20260901185403 74 0 0.0 0.0 0.00 0.00 0.00 75 1018.8